[Date Prev][Date Next][Thread Prev][Thread Next] - [Date Index][Thread Index][Author Index]

2 Line ISS Keps 2-4



ISS
1 25544U 98067A   06035.04934028  .00012974  00000-0  91356-4 0  2819
2 25544 051.6436 152.1689 0009401 231.5301 127.2022 15.74467710412171
----
Via the sarex mailing list at AMSAT.ORG courtesy of AMSAT-NA.
To unsubscribe, send "unsubscribe sarex" to Majordomo@amsat.org



AMSAT Top AMSAT Home